| time (UTC) | temp F | wind direction | speed MPH | gust MPH | rain 1hr in | rain 24hr in | rain mn in | humidity % | barometer mb |
| 20260906004411 | 48 | 338 | 0.0 | 0.0 | 0.00 | 0.00 | 0.00 | 95 | 1028.1 |
| 20260906003910 | 48 | 337 | 0.0 | 0.0 | 0.00 | 0.00 | 0.00 | 95 | 1028.1 |
| 20260906003411 | 48 | 337 | 0.0 | 2.0 | 0.00 | 0.00 | 0.00 | 95 | 1028.1 |
| 20260906002912 | 48 | 339 | 0.0 | 2.0 | 0.00 | 0.00 | 0.00 | 96 | 1028.1 |
| 20260906002410 | 48 | 348 | 0.0 | 2.0 | 0.00 | 0.00 | 0.00 | 95 | 1028.1 |
| 20260906001410 | 49 | 73 | 0.0 | 0.0 | 0.00 | 0.00 | 0.00 | 95 | 1028.1 |
| 20260905234911 | 49 | 73 | 0.0 | 0.0 | 0.00 | 0.00 | 0.00 | 95 | 1028.2 |
| 20260905232911 | 50 | 71 | 0.0 | 2.0 | 0.00 | 0.00 | 0.00 | 95 | 1028.1 |
| 20260905232410 | 50 | 72 | 0.0 | 0.0 | 0.00 | 0.00 | 0.00 | 94 | 1028.0 |
| 20260905230910 | 51 | 68 | 0.0 | 2.0 | 0.00 | 0.00 | 0.00 | 95 | 1028.1 |
| 20260905230411 | 51 | 69 | 0.0 | 3.0 | 0.00 | 0.00 | 0.00 | 94 | 1028.1 |
| 20260905225410 | 51 | 78 | 0.0 | 2.0 | 0.00 | 0.00 | 0.00 | 94 | 1028.0 |
| 20260905224910 | 51 | 78 | 1.0 | 0.0 | 0.00 | 0.00 | 0.00 | 94 | 1028.0 |
| 20260905224410 | 51 | 78 | 1.0 | 2.0 | 0.00 | 0.00 | 0.00 | 94 | 1028.0 |
| 20260905222913 | 52 | 79 | 0.0 | 3.0 | 0.00 | 0.00 | 0.00 | 95 | 1027.9 |
| 20260905222410 | 52 | 91 | 0.0 | 1.0 | 0.00 | 0.00 | 0.00 | 94 | 1027.8 |
| 20260905221412 | 52 | 91 | 0.0 | 1.0 | 0.00 | 0.00 | 0.00 | 94 | 1027.8 |
| 20260905215410 | 52 | 91 | 0.0 | 0.0 | 0.00 | 0.00 | 0.00 | 94 | 1027.9 |
| 20260905214910 | 51 | 91 | 0.0 | 2.0 | 0.00 | 0.00 | 0.00 | 94 | 1027.9 |
| 20260905214411 | 51 | 91 | 0.0 | 2.0 | 0.00 | 0.00 | 0.00 | 93 | 1027.9 |
| 20260905213411 | 52 | 48 | 0.0 | 0.0 | 0.00 | 0.00 | 0.00 | 93 | 1027.9 |
| 20260905211411 | 52 | 162 | 0.0 | 0.0 | 0.00 | 0.00 | 0.00 | 92 | 1027.7 |
| 20260905210910 | 52 | 162 | 0.0 | 0.0 | 0.00 | 0.00 | 0.00 | 92 | 1027.7 |
| 20260905205912 | 52 | 164 | 0.0 | 0.0 | 0.00 | 0.00 | 0.00 | 92 | 1027.7 |
| 20260905205410 | 52 | 180 | 0.0 | 0.0 | 0.00 | 0.00 | 0.00 | 91 | 1027.6 |
| 20260905204910 | 53 | 180 | 0.0 | 0.0 | 0.00 | 0.00 | 0.00 | 91 | 1027.6 |
| 20260905204411 | 53 | 180 | 0.0 | 0.0 | 0.00 | 0.00 | 0.00 | 91 | 1027.6 |
| 20260905202410 | 53 | 180 | 0.0 | 0.0 | 0.00 | 0.00 | 0.00 | 90 | 1027.3 |
| 20260905200410 | 54 | 180 | 0.0 | 0.0 | 0.00 | 0.00 | 0.00 | 88 | 1027.1 |
| 20260905194911 | 55 | 180 | 0.0 | 0.0 | 0.00 | 0.00 | 0.00 | 87 | 1027.1 |
| 20260905194410 | 55 | 180 | 0.0 | 0.0 | 0.00 | 0.00 | 0.00 | 86 | 1027.1 |
| 20260905193910 | 55 | 180 | 0.0 | 0.0 | 0.00 | 0.00 | 0.00 | 86 | 1027.0 |
| 20260905193410 | 56 | 180 | 0.0 | 0.0 | 0.00 | 0.00 | 0.00 | 85 | 1027.0 |
| 20260905192912 | 56 | 180 | 0.0 | 0.0 | 0.00 | 0.00 | 0.00 | 85 | 1027.0 |
| 20260905192410 | 56 | 180 | 0.0 | 0.0 | 0.00 | 0.00 | 0.00 | 84 | 1026.8 |
| 20260905191410 | 57 | 180 | 0.0 | 0.0 | 0.00 | 0.00 | 0.00 | 82 | 1026.8 |
| 20260905185410 | 59 | 88 | 0.0 | 0.0 | 0.00 | 0.00 | 0.00 | 81 | 1026.6 |
| 20260905184911 | 59 | 88 | 0.0 | 0.0 | 0.00 | 0.00 | 0.00 | 80 | 1026.6 |
| 20260905182911 | 62 | 66 | 1.0 | 0.0 | 0.00 | 0.00 | 0.00 | 77 | 1026.4 |
| 20260905182410 | 62 | 66 | 1.0 | 0.0 | 0.00 | 0.00 | 0.00 | 76 | 1026.2 |
| 20260905181910 | 63 | 67 | 1.0 | 2.0 | 0.00 | 0.00 | 0.00 | 73 | 1026.2 |
| 20260905180910 | 64 | 209 | 0.0 | 0.0 | 0.00 | 0.00 | 0.00 | 72 | 1026.2 |
| 20260905175910 | 65 | 165 | 1.0 | 0.0 | 0.00 | 0.00 | 0.00 | 69 | 1026.2 |
| 20260905175409 | 66 | 165 | 1.0 | 1.0 | 0.00 | 0.00 | 0.00 | 67 | 1026.0 |
| 20260905174410 | 66 | 250 | 2.0 | 3.0 | 0.00 | 0.01 | 0.00 | 64 | 1026.0 |
| 20260905173410 | 67 | 265 | 3.0 | 5.0 | 0.00 | 0.03 | 0.00 | 64 | 1026.0 |
| 20260905172410 | 67 | 297 | 3.0 | 7.0 | 0.00 | 0.04 | 0.00 | 62 | 1025.8 |
| 20260905171911 | 67 | 314 | 2.0 | 8.0 | 0.00 | 0.05 | 0.00 | 61 | 1025.8 |
| 20260905171412 | 67 | 11 | 2.0 | 6.0 | 0.00 | 0.07 | 0.00 | 61 | 1025.8 |
| 20260905170911 | 68 | 306 | 2.0 | 6.0 | 0.00 | 0.10 | 0.00 | 59 | 1025.7 |
| 20260905170410 | 68 | 277 | 2.0 | 6.0 | 0.00 | 0.13 | 0.00 | 59 | 1025.7 |
| 20260905165912 | 68 | 280 | 4.0 | 5.0 | 0.00 | 0.16 | 0.00 | 59 | 1025.7 |
| 20260905165410 | 68 | 276 | 5.0 | 5.0 | 0.00 | 0.18 | 0.00 | 58 | 1025.6 |
| 20260905164910 | 69 | 293 | 3.0 | 9.0 | 0.00 | 0.21 | 0.00 | 57 | 1025.6 |
| 20260905164410 | 69 | 306 | 3.0 | 13.0 | 0.00 | 0.21 | 0.00 | 56 | 1025.6 |
| 20260905163910 | 70 | 313 | 4.0 | 7.0 | 0.00 | 0.22 | 0.00 | 56 | 1025.5 |
| 20260905162911 | 70 | 236 | 5.0 | 8.0 | 0.00 | 0.25 | 0.00 | 55 | 1025.5 |
| 20260905162411 | 70 | 238 | 5.0 | 10.0 | 0.00 | 0.25 | 0.00 | 56 | 1025.4 |
| 20260905161910 | 70 | 309 | 6.0 | 8.0 | 0.00 | 0.25 | 0.00 | 55 | 1025.4 |
| 20260905161410 | 70 | 272 | 6.0 | 10.0 | 0.00 | 0.25 | 0.00 | 54 | 1025.4 |
| 20260905160410 | 70 | 323 | 3.0 | 13.0 | 0.00 | 0.25 | 0.00 | 55 | 1025.2 |
| 20260905155912 | 69 | 249 | 5.0 | 8.0 | 0.00 | 0.25 | 0.00 | 57 | 1025.2 |
| 20260905155410 | 69 | 254 | 5.0 | 7.0 | 0.00 | 0.25 | 0.00 | 56 | 1025.3 |
| 20260905153911 | 70 | 292 | 5.0 | 18.0 | 0.00 | 0.25 | 0.00 | 54 | 1025.2 |
| 20260905151911 | 69 | 284 | 6.0 | 10.0 | 0.00 | 0.25 | 0.00 | 55 | 1025.1 |
| 20260905151411 | 69 | 282 | 6.0 | 21.0 | 0.00 | 0.25 | 0.00 | 55 | 1025.1 |
| 20260905150910 | 69 | 318 | 6.0 | 10.0 | 0.00 | 0.25 | 0.00 | 56 | 1025.1 |
| 20260905150409 | 69 | 287 | 6.0 | 12.0 | 0.00 | 0.25 | 0.00 | 55 | 1025.1 |
| 20260905145409 | 70 | 251 | 6.0 | 13.0 | 0.00 | 0.25 | 0.00 | 57 | 1025.0 |
| 20260905143413 | 69 | 285 | 8.0 | 17.0 | 0.00 | 0.25 | 0.00 | 55 | 1024.8 |
| 20260905142923 | 69 | 232 | 7.0 | 17.0 | 0.00 | 0.25 | 0.00 | 57 | 1024.8 |
| 20260905141910 | 69 | 243 | 5.0 | 16.0 | 0.00 | 0.25 | 0.00 | 59 | 1024.9 |
| 20260905141410 | 69 | 347 | 5.0 | 12.0 | 0.00 | 0.25 | 0.00 | 57 | 1024.9 |
| 20260905135912 | 69 | 305 | 7.0 | 8.0 | 0.00 | 0.25 | 0.00 | 58 | 1024.9 |
| 20260905134910 | 69 | 265 | 7.0 | 15.0 | 0.00 | 0.25 | 0.00 | 58 | 1024.9 |
| 20260905134409 | 69 | 240 | 7.0 | 15.0 | 0.00 | 0.25 | 0.00 | 60 | 1024.9 |
| 20260905132913 | 68 | 300 | 6.0 | 16.0 | 0.00 | 0.25 | 0.00 | 59 | 1024.9 |
| 20260905132410 | 68 | 323 | 6.0 | 9.0 | 0.00 | 0.25 | 0.00 | 61 | 1024.8 |
| 20260905125912 | 68 | 262 | 7.0 | 22.0 | 0.00 | 0.25 | 0.00 | 61 | 1024.9 |
| 20260905123410 | 68 | 301 | 5.0 | 14.0 | 0.00 | 0.25 | 0.00 | 62 | 1024.7 |
| 20260905122911 | 67 | 305 | 5.0 | 10.0 | 0.00 | 0.25 | 0.00 | 63 | 1024.7 |
| 20260905122410 | 67 | 292 | 5.0 | 12.0 | 0.00 | 0.25 | 0.00 | 63 | 1024.7 |
| 20260905115913 | 67 | 238 | 6.0 | 12.0 | 0.00 | 0.25 | 0.00 | 66 | 1024.6 |
| 20260905114911 | 66 | 266 | 5.0 | 13.0 | 0.00 | 0.25 | 0.00 | 68 | 1024.6 |
| 20260905112909 | 67 | 251 | 6.0 | 18.0 | 0.00 | 0.25 | 0.00 | 66 | 1024.6 |
| 20260905111410 | 66 | 248 | 6.0 | 13.0 | 0.00 | 0.25 | 0.00 | 65 | 1024.5 |
| 20260905105910 | 65 | 273 | 7.0 | 10.0 | 0.00 | 0.25 | 0.00 | 69 | 1024.5 |
| 20260905105409 | 65 | 286 | 7.0 | 13.0 | 0.00 | 0.25 | 0.00 | 67 | 1024.3 |
| 20260905104411 | 65 | 255 | 5.0 | 15.0 | 0.00 | 0.25 | 0.00 | 69 | 1024.3 |
| 20260905103910 | 65 | 299 | 5.0 | 8.0 | 0.00 | 0.25 | 0.00 | 70 | 1024.3 |
| 20260905103409 | 65 | 261 | 5.0 | 12.0 | 0.00 | 0.25 | 0.00 | 70 | 1024.3 |
| 20260905102412 | 64 | 292 | 5.0 | 10.0 | 0.00 | 0.25 | 0.00 | 70 | 1024.2 |
| 20260905101415 | 64 | 314 | 5.0 | 8.0 | 0.00 | 0.25 | 0.00 | 71 | 1024.2 |
| 20260905100919 | 65 | 305 | 6.0 | 12.0 | 0.00 | 0.25 | 0.00 | 73 | 1024.1 |
| 20260905095917 | 64 | 341 | 6.0 | 12.0 | 0.00 | 0.25 | 0.00 | 72 | 1024.1 |
| 20260905095410 | 64 | 243 | 6.0 | 17.0 | 0.00 | 0.25 | 0.00 | 73 | 1024.0 |
| 20260905094911 | 64 | 247 | 7.0 | 14.0 | 0.00 | 0.25 | 0.00 | 75 | 1024.0 |
| 20260905093410 | 63 | 249 | 7.0 | 15.0 | 0.00 | 0.25 | 0.00 | 76 | 1023.9 |
| 20260905092911 | 63 | 290 | 6.0 | 12.0 | 0.00 | 0.25 | 0.00 | 75 | 1023.9 |
| 20260905092409 | 63 | 237 | 6.0 | 12.0 | 0.00 | 0.25 | 0.00 | 79 | 1023.7 |
| 20260905091910 | 63 | 219 | 6.0 | 14.0 | 0.00 | 0.25 | 0.00 | 82 | 1023.7 |
| 20260905090910 | 62 | 251 | 6.0 | 9.0 | 0.00 | 0.25 | 0.00 | 82 | 1023.6 |
| 20260905085409 | 62 | 259 | 6.0 | 13.0 | 0.00 | 0.25 | 0.00 | 83 | 1023.5 |
| 20260905083910 | 62 | 251 | 5.0 | 13.0 | 0.00 | 0.25 | 0.00 | 86 | 1023.3 |
| 20260905083409 | 62 | 238 | 5.0 | 10.0 | 0.00 | 0.25 | 0.00 | 87 | 1023.3 |
| 20260905082910 | 61 | 251 | 6.0 | 10.0 | 0.00 | 0.25 | 0.00 | 87 | 1023.3 |
| 20260905082409 | 61 | 233 | 7.0 | 9.0 | 0.00 | 0.25 | 0.00 | 88 | 1023.1 |
| 20260905075911 | 60 | 252 | 6.0 | 10.0 | 0.00 | 0.25 | 0.00 | 88 | 1023.0 |
| 20260905075409 | 60 | 234 | 6.0 | 8.0 | 0.00 | 0.25 | 0.00 | 89 | 1022.9 |
| 20260905073909 | 59 | 229 | 5.0 | 12.0 | 0.00 | 0.25 | 0.00 | 90 | 1022.8 |
| 20260905073409 | 59 | 237 | 5.0 | 9.0 | 0.00 | 0.25 | 0.00 | 90 | 1022.8 |
| 20260905072911 | 59 | 238 | 5.0 | 8.0 | 0.00 | 0.25 | 0.00 | 90 | 1022.8 |
| 20260905070409 | 59 | 249 | 5.0 | 7.0 | 0.00 | 0.25 | 0.00 | 91 | 1022.3 |
| 20260905065912 | 59 | 284 | 5.0 | 9.0 | 0.00 | 0.25 | 0.00 | 91 | 1022.3 |
| 20260905064410 | 58 | 242 | 3.0 | 8.0 | 0.00 | 0.25 | 0.00 | 93 | 1022.2 |
| 20260905063910 | 58 | 238 | 3.0 | 6.0 | 0.00 | 0.25 | 0.00 | 93 | 1022.1 |
| 20260905063410 | 58 | 242 | 2.0 | 7.0 | 0.00 | 0.25 | 0.00 | 93 | 1022.1 |
| 20260905062911 | 58 | 250 | 2.0 | 7.0 | 0.00 | 0.25 | 0.00 | 93 | 1022.1 |
| 20260905062409 | 58 | 250 | 2.0 | 7.0 | 0.00 | 0.25 | 0.00 | 93 | 1021.9 |
| 20260905061409 | 58 | 295 | 2.0 | 7.0 | 0.00 | 0.25 | 0.00 | 93 | 1021.9 |
| 20260905060910 | 58 | 253 | 3.0 | 7.0 | 0.00 | 0.25 | 0.00 | 94 | 1021.8 |
| 20260905055912 | 58 | 309 | 3.0 | 7.0 | 0.00 | 0.25 | 0.00 | 94 | 1021.8 |
| 20260905054910 | 59 | 279 | 2.0 | 7.0 | 0.00 | 0.25 | 0.00 | 94 | 1021.7 |
| 20260905053410 | 59 | 275 | 2.0 | 5.0 | 0.00 | 0.25 | 0.00 | 95 | 1021.4 |
| 20260905050409 | 59 | 313 | 2.0 | 5.0 | 0.00 | 0.25 | 0.00 | 96 | 1020.9 |
| 20260905043909 | 59 | 267 | 1.0 | 5.0 | 0.00 | 0.25 | 0.00 | 95 | 1020.5 |
| 20260905042912 | 59 | 209 | 2.0 | 2.0 | 0.00 | 0.25 | 0.00 | 95 | 1020.5 |
| 20260905042409 | 59 | 291 | 2.0 | 5.0 | 0.00 | 0.25 | 0.00 | 95 | 1020.4 |
| 20260905041409 | 59 | 240 | 1.0 | 3.0 | 0.00 | 0.25 | 0.00 | 95 | 1020.4 |
| 20260905034909 | 60 | 227 | 1.0 | 2.0 | 0.00 | 0.25 | 0.00 | 95 | 1020.2 |
| 20260905033910 | 60 | 279 | 1.0 | 3.0 | 0.00 | 0.25 | 0.00 | 95 | 1020.2 |
| 20260905032911 | 60 | 276 | 2.0 | 5.0 | 0.00 | 0.25 | 0.00 | 95 | 1020.2 |
| 20260905032410 | 60 | 352 | 2.0 | 2.0 | 0.00 | 0.25 | 0.00 | 95 | 1020.1 |
| 20260905030410 | 60 | 237 | 2.0 | 5.0 | 0.00 | 0.25 | 0.00 | 95 | 1020.2 |
| 20260905025410 | 60 | 209 | 1.0 | 2.0 | 0.00 | 0.25 | 0.00 | 95 | 1020.2 |
| 20260905024409 | 60 | 228 | 1.0 | 5.0 | 0.00 | 0.25 | 0.00 | 95 | 1020.2 |
| 20260905022911 | 61 | 268 | 2.0 | 3.0 | 0.00 | 0.25 | 0.00 | 94 | 1019.9 |
| 20260905021910 | 61 | 313 | 2.0 | 5.0 | 0.00 | 0.25 | 0.00 | 94 | 1019.9 |
| 20260905020409 | 61 | 277 | 2.0 | 6.0 | 0.00 | 0.25 | 0.00 | 94 | 1019.7 |
| 20260905014409 | 62 | 296 | 2.0 | 6.0 | 0.00 | 0.25 | 0.00 | 95 | 1019.6 |
| 20260905010409 | 62 | 290 | 1.0 | 3.0 | 0.00 | 0.25 | 0.00 | 95 | 1019.5 |
| 20260905005911 | 62 | 224 | 2.0 | 3.0 | 0.00 | 0.25 | 0.00 | 94 | 1019.5 |